KC5JIM Weather Reports


Display with metric or nautical units.
time (UTC)temp
F
wind
direction
speed
MPH
gust
MPH
rain 1hr
in
rain 24hr
in
rain mn
in
humidity
%
barometer
mb
20260901085012 70 242 0.0 2.0 0.00 0.00 0.00 88 1013.2
20260901084508 71 283 0.0 2.0 0.00 0.00 0.00 87 1013.2
20260901084004 71 269 0.0 1.0 0.00 0.00 0.00 86 1013.2
20260901083500 71 135 0.0 0.0 0.00 0.00 0.00 85 1013.2
20260901082956 71 96 1.0 3.0 0.00 0.00 0.00 85 1013.3
20260901082452 71 43 0.0 2.0 0.00 0.00 0.00 85 1013.2
20260901081948 71 54 0.0 2.0 0.00 0.00 0.00 86 1013.3
20260901081444 71 56 0.0 2.0 0.00 0.00 0.00 86 1013.2
20260901080940 71 89 0.0 1.0 0.00 0.00 0.00 87 1013.5
20260901080436 70 78 2.0 2.0 0.00 0.00 0.00 89 1013.5
20260901075932 70 304 0.0 0.0 0.00 0.00 0.00 88 1013.4
20260901075428 71 217 0.0 1.0 0.00 0.00 0.00 88 1013.5
20260901074924 71 168 1.0 2.0 0.00 0.00 0.00 88 1013.2
20260901074420 71 13 0.0 0.0 0.00 0.00 0.00 87 1013.1
20260901073916 71 13 0.0 2.0 0.00 0.00 0.00 87 1013.2
20260901073902 71 17 1.0 2.0 0.00 0.00 0.00 88 1013.4
20260901072908 71 6 0.0 2.0 0.00 0.00 0.00 88 1013.3
20260901072404 72 293 0.0 1.0 0.00 0.00 0.00 87 1013.4
20260901071900 71 352 0.0 0.0 0.00 0.00 0.00 86 1013.3
20260901071356 72 352 0.0 0.0 0.00 0.00 0.00 86 1013.3
20260901070852 72 9 0.0 1.0 0.00 0.00 0.00 86 1013.2
20260901070348 72 230 0.0 0.0 0.00 0.00 0.00 86 1013.6
20260901065844 72 44 0.0 1.0 0.00 0.00 0.45 85 1013.5
20260901065341 72 342 1.0 2.0 0.00 0.00 0.45 84 1013.4
20260901065059 72 322 0.0 2.0 0.00 0.00 0.45 84 1013.4
20260901064557 72 147 0.0 0.0 0.00 0.00 0.45 84 1013.2
20260901063829 72 155 0.0 2.0 0.00 0.00 0.45 84 1013.3
20260901063548 73 160 0.0 1.0 0.00 0.00 0.45 83 1013.4
20260901062821 73 287 0.0 2.0 0.00 0.00 0.45 82 1013.1
20260901062317 73 326 0.0 2.0 0.00 0.00 0.45 81 1013.0
20260901061813 73 49 1.0 2.0 0.00 0.00 0.45 81 1013.0
20260901061309 73 89 0.0 2.0 0.00 0.00 0.45 81 1013.1
20260901061027 73 89 0.0 2.0 0.00 0.00 0.45 81 1013.1
20260901060301 73 85 0.0 2.0 0.00 0.00 0.45 81 1013.0
20260901055253 74 23 0.0 2.0 0.00 0.00 0.45 80 1012.9
20260901054749 74 10 2.0 2.0 0.00 0.00 0.45 80 1012.7
20260901054245 74 11 2.0 3.0 0.00 0.00 0.45 81 1012.7
20260901053741 74 25 0.0 2.0 0.00 0.00 0.45 80 1012.8
20260901053237 74 6 2.0 4.0 0.00 0.00 0.45 81 1012.6
20260901052733 74 42 1.0 3.0 0.00 0.00 0.45 80 1012.6
20260901052229 74 30 1.0 3.0 0.00 0.00 0.45 80 1012.5
20260901051725 74 11 3.0 3.0 0.00 0.00 0.45 81 1012.7
20260901051221 73 16 2.0 2.0 0.00 0.00 0.45 81 1012.7
20260901050717 73 224 0.0 0.0 0.00 0.00 0.45 82 1012.5
20260901050434 73 224 0.0 1.0 0.00 0.00 0.45 82 1012.5
20260901045709 73 217 0.0 2.0 0.00 0.00 0.45 82 1012.8
20260901045425 73 206 0.0 3.0 0.00 0.00 0.45 82 1012.8
20260901044701 74 208 0.0 3.0 0.00 0.00 0.45 81 1012.6
20260901044157 74 162 0.0 2.0 0.00 0.00 0.45 80 1012.6
20260901043653 75 256 0.0 2.0 0.00 0.00 0.45 78 1012.4
20260901043149 75 243 0.0 2.0 0.00 0.00 0.45 76 1012.3
20260901042645 76 347 0.0 1.0 0.00 0.00 0.45 75 1012.1
20260901042141 76 356 2.0 4.0 0.00 0.00 0.45 75 1012.3
20260901041637 76 352 3.0 4.0 0.00 0.00 0.45 74 1012.2
20260901041353 76 340 2.0 4.0 0.00 0.00 0.45 73 1012.3
20260901040629 76 354 4.0 6.0 0.00 0.00 0.45 72 1012.4
20260901040124 77 352 6.0 7.0 0.00 0.00 0.45 71 1012.1
20260901035620 77 333 2.0 5.0 0.00 0.00 0.45 69 1011.8
20260901035116 77 37 0.0 4.0 0.00 0.00 0.45 69 1011.8
20260901034613 76 44 0.0 2.0 0.00 0.00 0.45 70 1012.2
20260901034108 76 142 0.0 2.0 0.00 0.00 0.45 70 1011.9
20260901033828 76 227 0.0 3.0 0.00 0.00 0.45 71 1012.1
20260901033321 76 208 2.0 3.0 0.00 0.00 0.45 71 1011.9
20260901032556 76 196 4.0 4.0 0.00 0.00 0.45 73 1012.1
20260901032317 76 170 2.0 3.0 0.00 0.00 0.45 74 1012.1
20260901031810 76 172 2.0 4.0 0.00 0.00 0.45 73 1012.1
20260901031045 76 156 2.0 2.0 0.00 0.00 0.45 73 1011.8
20260901030800 76 258 1.0 2.0 0.00 0.00 0.45 71 1011.8
20260901030036 76 19 0.0 2.0 0.00 0.00 0.45 71 1011.7
20260901025532 76 315 0.0 1.0 0.00 0.00 0.45 73 1011.7
20260901025028 76 202 0.0 1.0 0.00 0.00 0.45 71 1011.7
20260901024524 76 326 1.0 3.0 0.00 0.00 0.45 71 1011.6
20260901024020 76 351 3.0 5.0 0.00 0.00 0.45 71 1011.4
20260901023516 76 32 0.0 3.0 0.00 0.00 0.45 72 1011.6
20260901023012 76 323 3.0 3.0 0.00 0.00 0.45 71 1011.5
20260901022508 77 317 2.0 4.0 0.00 0.00 0.45 71 1011.5
20260901022226 77 304 1.0 3.0 0.00 0.00 0.45 70 1011.6
20260901021500 77 279 3.0 3.0 0.00 0.00 0.45 68 1011.3
20260901020956 77 306 1.0 2.0 0.00 0.00 0.45 69 1011.2
20260901020452 77 258 1.0 2.0 0.00 0.00 0.45 69 1011.4
20260901015948 77 239 0.0 2.0 0.00 0.00 0.45 69 1011.3
20260901015444 77 232 1.0 2.0 0.00 0.00 0.45 69 1011.1
20260901015433 77 273 0.0 1.0 0.00 0.00 0.45 70 1011.1
20260901014436 77 207 2.0 2.0 0.00 0.00 0.45 68 1010.9
20260901013932 78 315 0.0 1.0 0.00 0.00 0.45 67 1010.7
20260901013428 78 246 0.0 2.0 0.00 0.00 0.45 65 1010.5
20260901012924 78 254 2.0 3.0 0.00 0.00 0.45 65 1010.5
20260901012420 78 210 2.0 3.0 0.00 0.00 0.45 63 1010.5
20260901012405 78 201 1.0 2.0 0.00 0.00 0.45 63 1010.7
20260901011412 78 224 0.0 0.0 0.00 0.00 0.45 61 1010.7
20260901010908 78 217 0.0 2.0 0.00 0.00 0.45 61 1010.5
20260901010625 78 205 0.0 3.0 0.00 0.00 0.45 62 1010.4
20260901005901 79 209 0.0 4.0 0.00 0.00 0.45 63 1010.6
20260901005356 79 235 2.0 3.0 0.00 0.00 0.45 63 1010.5
20260901004853 79 175 0.0 3.0 0.00 0.00 0.45 61 1010.3
20260901004348 79 269 0.0 1.0 0.00 0.00 0.45 57 1010.3
20260901003844 79 4 0.0 2.0 0.00 0.00 0.45 58 1010.2
20260901003341 79 53 1.0 2.0 0.00 0.00 0.45 58 1010.4
20260901002836 80 102 2.0 2.0 0.00 0.00 0.45 56 1010.3
20260901002332 79 236 0.0 2.0 0.00 0.00 0.45 56 1010.4
20260901002320 80 153 1.0 4.0 0.00 0.00 0.45 58 1010.2
20260901001324 80 182 2.0 4.0 0.00 0.00 0.45 58 1010.3
20260901000820 80 248 4.0 6.0 0.00 0.00 0.45 56 1010.1
20260901000316 80 232 0.0 5.0 0.00 0.00 0.45 57 1010.4
20260831235813 79 278 0.0 4.0 0.00 0.00 0.45 57 1010.7
20260831235308 78 232 2.0 2.0 0.00 0.00 0.45 56 1010.3
20260831234805 80 294 2.0 5.0 0.00 0.00 0.45 57 1010.4
20260831234300 79 319 0.0 2.0 0.00 0.00 0.45 58 1010.1
20260831233756 78 27 0.0 3.0 0.00 0.00 0.45 58 1010.3
20260831233252 78 225 1.0 3.0 0.00 0.00 0.45 58 1010.1
20260831232749 77 263 2.0 4.0 0.00 0.00 0.45 60 1010.5
20260831232244 77 317 4.0 9.0 0.00 0.00 0.45 61 1010.2
20260831231740 77 266 6.0 9.0 0.00 0.00 0.45 63 1010.1
20260831231236 77 340 9.0 9.0 0.00 0.00 0.45 62 1009.8
20260831230733 76 289 3.0 10.0 0.00 0.00 0.45 63 1010.1
20260831230228 76 322 8.0 13.0 0.00 0.00 0.45 64 1010.2
20260831225724 76 330 6.0 10.0 0.00 0.00 0.45 65 1009.9
20260831225221 75 349 5.0 17.0 0.00 0.00 0.45 67 1010.5
20260831224717 74 342 4.0 12.0 0.00 0.00 0.45 69 1010.7
20260831224435 74 19 2.0 10.0 0.00 0.00 0.45 70 1010.8
20260831223709 73 0 6.0 16.0 0.00 0.00 0.45 70 1010.8
20260831223204 73 7 7.0 10.0 0.00 0.00 0.45 72 1010.8
20260831222700 73 5 5.0 13.0 0.00 0.00 0.45 75 1011.1
20260831222156 73 356 9.0 13.0 0.00 0.00 0.45 76 1010.9
20260831221653 73 335 8.0 19.0 0.00 0.00 0.45 76 1011.1
20260831221149 72 336 4.0 28.0 0.00 0.00 0.45 77 1011.5
20260831220645 73 331 12.0 26.0 0.00 0.00 0.45 77 1011.5
20260831220141 72 314 14.0 19.0 0.00 0.00 0.45 81 1011.8
20260831215856 71 269 7.0 15.0 0.01 0.00 0.45 82 1011.9
20260831215132 70 353 5.0 9.0 0.01 0.00 0.45 83 1012.2
20260831214628 70 282 2.0 8.0 0.02 0.00 0.45 84 1012.2
20260831214124 70 324 2.0 5.0 0.03 0.00 0.45 86 1012.3
20260831213620 70 341 6.0 8.0 0.04 0.00 0.45 88 1012.1
20260831213116 69 342 4.0 5.0 0.05 0.00 0.45 89 1012.7
20260831212612 68 340 3.0 4.0 0.06 0.00 0.45 91 1012.8
20260831212108 69 156 3.0 5.0 0.06 0.00 0.45 92 1013.1
20260831211604 69 294 0.0 6.0 0.08 0.00 0.45 91 1012.7
20260831211100 69 291 4.0 10.0 0.09 0.00 0.45 90 1012.8
20260831210556 69 292 4.0 17.0 0.10 0.00 0.45 90 1013.2
20260831210052 69 343 7.0 11.0 0.11 0.00 0.44 91 1013.4
20260831205548 69 290 6.0 20.0 0.13 0.00 0.44 93 1013.5
20260831205044 69 288 7.0 12.0 0.13 0.00 0.43 94 1014.2
20260831204801 69 304 4.0 8.0 0.13 0.00 0.42 95 1014.2
20260831204036 68 285 6.0 9.0 0.13 0.00 0.41 95 1014.6
20260831203532 68 285 5.0 8.0 0.13 0.00 0.41 95 1014.6
20260831203028 68 330 7.0 11.0 0.23 0.00 0.40 95 1014.8
20260831202524 68 297 2.0 10.0 0.24 0.00 0.39 95 1015.0
20260831202020 69 336 4.0 11.0 0.24 0.00 0.38 95 1015.0
20260831201516 68 320 9.0 10.0 0.22 0.00 0.37 94 1015.5
20260831201012 68 330 9.0 11.0 0.21 0.00 0.35 94 1015.9
20260831200508 68 311 2.0 6.0 0.20 0.00 0.34 94 1016.1
20260831200004 68 284 3.0 5.0 0.17 0.00 0.32 93 1015.9
20260831195720 69 305 5.0 8.0 0.17 0.00 0.30 92 1015.8
20260831194956 68 281 2.0 3.0 0.16 0.00 0.30 91 1015.9
20260831194945 68 59 0.0 4.0 0.17 0.00 0.29 91 1016.2
20260831193948 69 29 4.0 7.0 0.17 0.00 0.27 89 1016.2
20260831193936 69 53 2.0 6.0 0.08 0.00 0.16 89 1016.2
20260831192940 69 2 5.0 6.0 0.06 0.00 0.15 89 1016.1
20260831192436 68 7 5.0 8.0 0.06 0.00 0.14 90 1016.3
20260831192155 68 75 1.0 3.0 0.06 0.00 0.14 91 1016.4
20260831191428 67 21 2.0 3.0 0.06 0.00 0.14 91 1016.3
20260831190925 67 200 6.0 7.0 0.06 0.00 0.14 91 1015.8
20260831190421 67 213 4.0 8.0 0.06 0.00 0.14 91 1015.8
20260831185918 68 197 4.0 10.0 0.06 0.00 0.14 91 1016.0
20260831185414 68 187 7.0 14.0 0.05 0.00 0.13 90 1015.6
20260831184910 68 167 7.0 21.0 0.05 0.00 0.13 88 1015.4
20260831184406 69 163 10.0 25.0 0.03 0.00 0.11 84 1015.0
20260831183902 70 183 11.0 25.0 0.01 0.00 0.09 81 1015.0
20260831183621 71 154 13.0 26.0 0.00 0.00 0.09 80 1014.7
20260831182854 71 129 9.0 21.0 0.00 0.00 0.09 80 1014.8
20260831182612 71 157 11.0 22.0 0.00 0.00 0.09 79 1014.7
20260831181846 72 121 4.0 34.0 0.00 0.00 0.08 78 1015.1
20260831181342 73 99 19.0 26.0 0.00 0.00 0.08 76 1014.4
20260831180838 72 118 13.0 19.0 0.00 0.00 0.08 76 1014.0
20260831180334 72 69 4.0 18.0 0.00 0.00 0.08 76 1014.0
20260831175830 72 93 4.0 21.0 0.00 0.00 0.08 75 1014.0
20260831175326 73 143 11.0 23.0 0.00 0.00 0.08 73 1014.3
20260831174822 73 155 8.0 21.0 0.00 0.00 0.08 73 1014.4
20260831174318 74 157 7.0 23.0 0.00 0.00 0.08 72 1014.0
20260831173814 74 152 17.0 22.0 0.00 0.00 0.08 73 1013.8
20260831173310 74 158 11.0 26.0 0.00 0.00 0.08 72 1013.8
20260831172806 74 163 7.0 25.0 0.00 0.00 0.08 71 1013.8
20260831172305 75 160 15.0 22.0 0.00 0.00 0.08 70 1013.8
20260831171758 76 158 11.0 25.0 0.00 0.00 0.08 66 1013.5
20260831171254 77 140 8.0 22.0 0.00 0.00 0.08 62 1013.2
20260831170750 77 157 24.0 24.0 0.00 0.00 0.08 61 1013.0
20260831170245 77 151 11.0 21.0 0.00 0.00 0.08 67 1012.8
20260831170005 77 162 15.0 19.0 0.00 0.00 0.08 70 1012.9
20260831165237 77 148 6.0 17.0 0.00 0.00 0.08 69 1012.8
20260831164733 77 171 5.0 14.0 0.00 0.00 0.08 68 1012.5
20260831164449 77 160 8.0 22.0 0.00 0.00 0.08 69 1012.7
20260831163725 78 156 18.0 28.0 0.00 0.00 0.08 67 1012.4
20260831163221 80 220 5.0 13.0 0.00 0.00 0.08 61 1012.1
20260831162938 80 225 10.0 16.0 0.00 0.00 0.08 61 1011.8
20260831162213 79 213 3.0 9.0 0.00 0.00 0.08 59 1011.9
20260831161709 79 267 2.0 9.0 0.00 0.00 0.08 61 1011.7
20260831161205 80 256 4.0 11.0 0.00 0.00 0.08 59 1011.5
20260831160702 80 333 12.0 13.0 0.00 0.00 0.08 52 1011.2
20260831160157 80 308 6.0 17.0 0.00 0.00 0.08 53 1011.2
20260831155653 80 301 2.0 17.0 0.00 0.00 0.08 53 1011.3
20260831155149 80 316 11.0 15.0 0.00 0.00 0.08 54 1011.2
20260831154645 79 306 8.0 14.0 0.00 0.00 0.08 54 1011.2
20260831154404 78 319 21.0 21.0 0.00 0.00 0.08 56 1011.3
20260831153637 78 311 7.0 16.0 0.00 0.00 0.08 56 1011.5
20260831153354 78 311 15.0 23.0 0.00 0.00 0.08 56 1011.3
20260831152629 78 356 9.0 21.0 0.00 0.00 0.08 57 1011.6
20260831152125 76 268 2.0 11.0 0.00 0.00 0.08 68 1011.8
20260831151621 76 1 8.0 17.0 0.00 0.00 0.08 65 1011.8
20260831151117 76 344 4.0 18.0 0.00 0.00 0.08 72 1011.8
20260831150613 75 23 4.0 22.0 0.00 0.00 0.08 76 1011.8
20260831150109 74 36 8.0 12.0 0.00 0.00 0.08 78 1011.4
20260831145605 74 10 6.0 13.0 0.00 0.00 0.08 78 1011.5
20260831145322 74 50 7.0 12.0 0.00 0.00 0.08 79 1011.7
20260831144557 74 29 3.0 11.0 0.00 0.00 0.08 81 1011.3
20260831144053 74 40 3.0 9.0 0.00 0.00 0.08 79 1011.3
20260831143550 74 53 1.0 7.0 0.00 0.00 0.08 77 1011.2
20260831143046 73 78 5.0 5.0 0.00 0.00 0.08 79 1011.0
20260831142542 73 89 4.0 8.0 0.00 0.00 0.08 80 1010.7
20260831142038 73 7 2.0 4.0 0.00 0.00 0.08 80 1010.9
20260831141534 73 43 2.0 4.0 0.00 0.00 0.08 81 1010.7
20260831141250 73 342 2.0 8.0 0.00 0.00 0.08 82 1011.0
20260831140241 72 12 3.0 6.0 0.00 0.00 0.08 85 1011.0
20260831135517 71 8 3.0 9.0 0.00 0.00 0.08 86 1011.2
20260831135013 72 303 3.0 8.0 0.00 0.00 0.08 86 1011.1
20260831134730 71 34 3.0 5.0 0.00 0.00 0.08 85 1011.1
20260831134005 71 36 5.0 7.0 0.00 0.00 0.08 86 1011.0
20260831133726 71 43 3.0 7.0 0.00 0.00 0.08 87 1011.2
20260831132957 71 19 4.0 10.0 0.01 0.00 0.08 87 1011.0
20260831132453 71 349 4.0 11.0 0.02 0.00 0.08 88 1011.0
20260831132209 71 319 5.0 10.0 0.04 0.00 0.08 87 1010.8
20260831131707 71 319 7.0 9.0 0.06 0.00 0.08 87 1011.3
20260831130941 71 287 2.0 5.0 0.06 0.00 0.08 86 1011.2
20260831130437 71 243 2.0 5.0 0.06 0.00 0.08 86 1011.2
20260831130156 70 221 1.0 5.0 0.06 0.00 0.08 87 1011.2
20260831125430 71 196 3.0 16.0 0.08 0.00 0.08 85 1011.2
20260831124925 70 158 9.0 13.0 0.08 0.00 0.08 86 1011.4
20260831124421 70 145 8.0 14.0 0.08 0.00 0.08 86 1011.5
20260831123917 70 151 7.0 15.0 0.08 0.00 0.08 85 1011.7
20260831123413 70 164 18.0 24.0 0.08 0.00 0.08 86 1011.1
20260831122909 70 159 18.0 27.0 0.07 0.00 0.07 86 1011.6
20260831122405 71 129 10.0 24.0 0.06 0.00 0.06 85 1011.6
20260831121901 71 126 15.0 17.0 0.04 0.00 0.04 84 1011.4
20260831121357 71 164 12.0 19.0 0.03 0.00 0.03 83 1011.5
20260831121114 71 122 8.0 19.0 0.03 0.00 0.03 84 1011.5
20260831120349 71 165 10.0 17.0 0.02 0.00 0.02 84 1011.6
20260831115845 72 111 5.0 16.0 0.02 0.00 0.02 82 1011.0
20260831115342 73 112 4.0 15.0 0.01 0.00 0.01 79 1010.9
20260831114838 74 142 6.0 15.0 0.00 0.00 0.00 75 1010.6
20260831114334 74 151 15.0 24.0 0.00 0.00 0.00 73 1010.5
20260831113830 74 134 11.0 30.0 0.00 0.00 0.00 72 1010.2
20260831113550 75 100 9.0 26.0 0.00 0.00 0.00 71 1010.1
20260831112822 76 72 6.0 28.0 0.00 0.00 0.00 68 1009.4
20260831112318 78 105 15.0 29.0 0.00 0.00 0.00 64 1009.2
20260831111814 83 75 18.0 24.0 0.00 0.00 0.00 50 1008.4
20260831111800 83 69 4.0 11.0 0.00 0.00 0.00 49 1008.0
20260831111029 83 39 3.0 6.0 0.00 0.00 0.00 48 1008.0
20260831110302 83 93 4.0 9.0 0.00 0.00 0.00 48 1008.0
20260831105758 83 79 5.0 6.0 0.00 0.00 0.00 49 1007.9
20260831105253 83 116 3.0 4.0 0.00 0.00 0.00 49 1008.0
20260831104749 83 120 2.0 6.0 0.00 0.00 0.00 49 1007.6
20260831104245 83 161 2.0 5.0 0.00 0.00 0.00 48 1007.2
20260831103741 83 337 2.0 7.0 0.00 0.00 0.00 48 1007.0
20260831103237 83 327 2.0 2.0 0.00 0.00 0.00 48 1007.2
20260831102957 83 328 0.0 3.0 0.00 0.00 0.00 48 1007.3
20260831102229 83 295 0.0 3.0 0.00 0.00 0.00 48 1007.4
20260831101725 82 275 2.0 4.0 0.00 0.00 0.00 50 1007.4
20260831101221 81 232 4.0 7.0 0.00 0.00 0.00 51 1007.6
20260831100717 81 227 2.0 6.0 0.00 0.00 0.00 53 1007.5
20260831100214 81 255 2.0 5.0 0.00 0.00 0.00 53 1007.3
20260831095710 81 279 1.0 4.0 0.00 0.00 0.00 53 1007.4
20260831095656 81 178 2.0 3.0 0.00 0.00 0.00 52 1007.2
20260831094701 81 195 2.0 2.0 0.00 0.00 0.00 53 1007.3
20260831094157 81 95 0.0 2.0 0.00 0.00 0.00 53 1007.4
20260831093653 82 204 4.0 4.0 0.00 0.00 0.00 51 1007.4
20260831093149 83 293 0.0 2.0 0.00 0.00 0.00 50 1007.1
20260831092645 82 67 4.0 4.0 0.00 0.00 0.00 51 1007.2
20260831092141 82 32 0.0 1.0 0.00 0.00 0.00 51 1007.1
20260831091637 82 322 0.0 0.0 0.00 0.00 0.00 51 1007.0
20260831091355 82 322 1.0 3.0 0.00 0.00 0.00 50 1007.4
20260831090629 82 326 1.0 2.0 0.00 0.00 0.00 50 1007.4
20260831090126 82 145 0.0 1.0 0.00 0.00 0.00 51 1007.1